RESURS O1 DEB

Satellite information

Favourite Embed

Satellite Type and Status

DEBRISIN ORBIT

Key statistics

Satellite RESURS O1 DEB at a glance.

Uptime

11202

Days in orbit

Revolutions

≈ 14.3

Per day

Orbit

SSO

Sun Synchronous Orbit

Inclination

97.8

Latest

Satellite identification and parameters

Extended collection of information and parameters for RESURS O1 DEB.

Object identification

Identified? True

Debris? True

Object name: RESURS O1 DEB

International designator: 1994-074D

Object number (NORAD): 23345

Object ID (CCSDS): 23345

Country: COMMONWEALTH OF INDEPENDENT STATES (CIS)

Current information (Y/N): Y

RCS size: SMALL

Orbital parameters

Period: 100.471 minutes

Inclination: 97.803 deg

SMA: 7159.031 km

Apoapsis: 917.67 km

Periapsis: 644.122 km

RAAN: 12.811 deg

Eccentricy: 0.0191051

Argument of periapsis: 143.6712 deg

Mean anomaly: 278.0087 deg

Mean motion: 14.33248107 rev/day

Mean motion (dot): 0.00000778 rev/day2

B* drag term: 0.0002428 1/REarth

Two-line elements (TLE)

Creation date: July 5, 2025, 5:45 p.m.

Reference frame: TEME

Reference center: EARTH

Epoch: July 5, 2025, 12:24 p.m. UTC

TLE line 0: 0 RESURS O1 DEB

TLE line 1: 1 23345U 94074D 25186.51716517 .00000778 00000-0 24280-3 0 9997

TLE line 2: 2 23345 97.8030 12.8110 0191051 143.6712 278.0087 14.33248107598085

Live tracking on map

Real-time ground track for satellite RESURS O1 DEB.

In-orbit conjunctions

A list of the most updated potential collisions computed for object RESURS O1 DEB.

Target Orbit TCA Probability of collision Miss distance Type
CZ-2D DEB SSO 2025-03-30 17:42:35 0.005077946 17.0 (m) DEBRIS
CZ-6A DEB LEO 2025-01-20 10:56:39 0.0003264569 571.0 (m) DEBRIS
DELTA 1 DEB SSO 2024-11-19 11:57:12 0.0001500713 97.0 (m) DEBRIS

Associated space launch

Resurs-O1 N3 or Resurs-O1 1 is the third earth observation satellite in the Russian Resurs-O1 program.

RESURS O1 DEB was lifted into orbit during the mission ‘Zenit-2 | Resurs-O1’, on board a Zenit-2 space rocket.

The launch took place on Nov. 4, 1994, 5:47 a.m. from 45/1.

For more information about the launch, click the button.

Launch to space Zenit-2 | Resurs-O1
Zenit-2 | Resurs-O1

Agency: N/A

Status: Launch Successful

Launch date: Nov. 4, 1994, 5:47 a.m. UTC

Rocket: Zenit-2

Launch pad: 45/1

Location: Baikonur Cosmodrome, Republic of Kazakhstan

...

Latest news about this satellite

There are no fresh news available about this satellite. Check back as we update our databases every day.


Newsletter sign-up

Weekly statistics, charts and insights to help you stay on top of the space industry.